Change the Weather History Date:

Tuesday, October 1, 2013

  Actual Average Record
Temperature  
Mean Temperature 58 °F -  
Max Temperature 69 °F 58 °F 82 °F (2005)
Min Temperature 46 °F 36 °F 3 °F (1997)
Degree Days  
Heating Degree Days 8    
Growing Degree Days 8 (Base 50)    
Moisture  
Dew Point 41 °F    
Average Humidity 58    
Maximum Humidity 94    
Minimum Humidity 23    
Precipitation  
Precipitation 0.00 in - - ()
Sea Level Pressure  
Sea Level Pressure 29.73 in    
Wind  
Wind Speed 14 mph (West)    
Max Wind Speed 29 mph    
Max Gust Speed 38 mph    
Visibility 10 miles    
Events Rain    
Averages and records for this station are not official NWS values.
T = Trace of Precipitation, MM = Missing Value Source: NWS Daily Summary

Daily Weather History Graph

Daily Weather History Graph

Search for Another Location

Airport or City:

Trip Planner

Search our weather history database for the weather conditions in past years. The results will help you decide how hot, cold, wet, or windy it might be!

Date:

Astronomy

Oct. 01, 2013 Rise Set
Actual Time 7:26 AM CDT 7:05 PM CDT
Civil Twilight 6:55 AM CDT 7:35 PM CDT
Nautical Twilight 6:19 AM CDT 8:11 PM CDT
Astronomical Twilight 5:42 AM CDT 8:48 PM CDT
Moon 3:48 AM CDT (10/1) 5:19 PM CDT (10/1)
Length of Visible Light 12h 40m
Length of Day
11h 39m
Waning Crescent, 12% of the Moon is Illuminated
Oct 1
Waning Crescent
Oct 4
New
Oct 11
First Quarter
Oct 18
Full
Oct 26
Last Quarter

Hourly Weather History & Observations

Time (CDT) Temp. Windchill Dew Point Humidity Pressure Visibility Wind Dir Wind Speed Gust Speed Precip Events Conditions
12:15 AM 60.8 °F - 55.4 °F 82% 29.51 in 10.0 mi West 16.1 mph 19.6 mph N/A   Clear
12:34 AM 62.6 °F - 53.6 °F 72% 29.52 in 10.0 mi West 16.1 mph 20.7 mph N/A   Scattered Clouds
12:54 AM 62.6 °F - 51.8 °F 68% 29.53 in 10.0 mi WNW 21.9 mph 26.5 mph N/A   Scattered Clouds
1:15 AM 60.8 °F - 51.8 °F 72% 29.54 in 10.0 mi WNW 15.0 mph - N/A   Scattered Clouds
1:34 AM 59.0 °F - 53.6 °F 82% 29.53 in 10.0 mi WNW 10.4 mph - N/A Rain Light Rain
1:54 AM 57.2 °F - 53.6 °F 88% 29.54 in 10.0 mi WNW 6.9 mph - N/A   Scattered Clouds
2:14 AM 57.2 °F - 53.6 °F 88% 29.55 in 10.0 mi West 6.9 mph - N/A   Scattered Clouds
2:34 AM 57.2 °F - 51.8 °F 82% 29.57 in 10.0 mi West 8.1 mph - N/A   Scattered Clouds
2:55 AM 55.4 °F - 51.8 °F 88% 29.58 in 10.0 mi West 8.1 mph - N/A   Clear
3:14 AM 55.4 °F - 51.8 °F 88% 29.57 in 10.0 mi West 6.9 mph - N/A   Clear
3:35 AM 55.4 °F - 51.8 °F 88% 29.57 in 10.0 mi West 9.2 mph - N/A   Clear
3:54 AM 55.4 °F - 51.8 °F 88% 29.58 in 10.0 mi West 8.1 mph - N/A   Clear
4:14 AM 55.4 °F - 51.8 °F 88% 29.58 in 10.0 mi West 5.8 mph - N/A   Clear
4:35 AM 53.6 °F - 51.8 °F 94% 29.59 in 10.0 mi WSW 6.9 mph - N/A   Clear
4:54 AM 53.6 °F - 48.2 °F 82% 29.60 in 10.0 mi West 9.2 mph - N/A   Clear
5:14 AM 53.6 °F - 48.2 °F 82% 29.61 in 10.0 mi WSW 8.1 mph - N/A   Clear
5:35 AM 51.8 °F - 46.4 °F 82% 29.63 in 10.0 mi WSW 9.2 mph - N/A   Clear
5:54 AM 51.8 °F - 46.4 °F 82% 29.64 in 10.0 mi WSW 9.2 mph - N/A   Clear
6:15 AM 51.8 °F - 44.6 °F 76% 29.64 in 10.0 mi WSW 10.4 mph - N/A   Clear
6:34 AM 51.8 °F - 44.6 °F 76% 29.65 in 10.0 mi WSW 10.4 mph - N/A   Clear
6:54 AM 51.8 °F - 44.6 °F 76% 29.66 in 10.0 mi WSW 12.7 mph - N/A   Clear
7:15 AM 50.0 °F - 42.8 °F 76% 29.67 in 10.0 mi WSW 11.5 mph - N/A   Clear
7:34 AM 50.0 °F - 42.8 °F 76% 29.67 in 10.0 mi WSW 11.5 mph - N/A   Clear
7:54 AM 50.0 °F - 42.8 °F 76% 29.68 in 10.0 mi WSW 12.7 mph - N/A   Clear
8:14 AM 51.8 °F - 42.8 °F 71% 29.69 in 10.0 mi WSW 11.5 mph - N/A   Clear
8:34 AM 51.8 °F - 42.8 °F 71% 29.69 in 10.0 mi WSW 13.8 mph - N/A   Clear
8:55 AM 51.8 °F - 42.8 °F 71% 29.70 in 10.0 mi WSW 13.8 mph - N/A   Clear
9:14 AM 53.6 °F - 42.8 °F 67% 29.71 in 10.0 mi WSW 12.7 mph 18.4 mph N/A   Clear
9:34 AM 55.4 °F - 42.8 °F 63% 29.72 in 10.0 mi West 13.8 mph 18.4 mph N/A   Clear
9:55 AM 55.4 °F - 42.8 °F 63% 29.73 in 10.0 mi West 12.7 mph 18.4 mph N/A   Clear
10:14 AM 57.2 °F - 42.8 °F 59% 29.74 in 10.0 mi West 17.3 mph 21.9 mph N/A   Clear
10:34 AM 59.0 °F - 41.0 °F 51% 29.74 in 10.0 mi West 16.1 mph 25.3 mph N/A   Clear
10:55 AM 60.8 °F - 41.0 °F 48% 29.74 in 10.0 mi West 20.7 mph - N/A   Clear
11:14 AM 62.6 °F - 39.2 °F 42% 29.74 in 10.0 mi West 21.9 mph 26.5 mph N/A   Clear
11:34 AM 62.6 °F - 41.0 °F 45% 29.75 in 10.0 mi West 17.3 mph 26.5 mph N/A   Clear
11:55 AM 64.4 °F - 39.2 °F 40% 29.75 in 10.0 mi West 23.0 mph 28.8 mph N/A   Clear
12:14 PM 64.4 °F - 39.2 °F 40% 29.75 in 10.0 mi West 20.7 mph 25.3 mph N/A   Clear
12:34 PM 66.2 °F - 39.2 °F 37% 29.75 in 10.0 mi West 21.9 mph 29.9 mph N/A   Clear
12:55 PM 66.2 °F - 37.4 °F 35% 29.76 in 10.0 mi West 26.5 mph 32.2 mph N/A   Clear
1:14 PM 66.2 °F - 35.6 °F 32% 29.76 in 10.0 mi West 27.6 mph 33.4 mph N/A   Clear
1:34 PM 66.2 °F - 37.4 °F 35% 29.76 in 10.0 mi West 20.7 mph 32.2 mph N/A   Clear
1:55 PM 66.2 °F - 37.4 °F 35% 29.76 in 10.0 mi West 24.2 mph 27.6 mph N/A   Clear
2:14 PM 68.0 °F - 35.6 °F 30% 29.77 in 10.0 mi West 26.5 mph 34.5 mph N/A   Clear
2:34 PM 68.0 °F - 35.6 °F 30% 29.76 in 10.0 mi West 19.6 mph 29.9 mph N/A   Clear
2:54 PM 68.0 °F - 33.8 °F 28% 29.77 in 10.0 mi West 27.6 mph 33.4 mph N/A   Clear
3:15 PM 68.0 °F - 33.8 °F 28% 29.78 in 10.0 mi West 28.8 mph 35.7 mph N/A   Clear
3:34 PM 69.8 °F - 33.8 °F 27% 29.77 in 10.0 mi West 25.3 mph 32.2 mph N/A   Clear
3:54 PM 69.8 °F - 32.0 °F 25% 29.78 in 10.0 mi West 25.3 mph 38.0 mph N/A   Clear
4:15 PM 69.8 °F - 30.2 °F 23% 29.78 in 10.0 mi West 27.6 mph 36.8 mph N/A   Clear
4:34 PM 69.8 °F - 32.0 °F 25% 29.78 in 10.0 mi WNW 26.5 mph 34.5 mph N/A   Clear
4:54 PM 69.8 °F - 30.2 °F 23% 29.79 in 10.0 mi West 27.6 mph 35.7 mph N/A   Clear
5:15 PM 69.8 °F - 32.0 °F 25% 29.79 in 10.0 mi West 27.6 mph - N/A   Clear
5:34 PM 68.0 °F - 32.0 °F 26% 29.80 in 10.0 mi West 26.5 mph 34.5 mph N/A   Clear
5:54 PM 66.2 °F - 33.8 °F 30% 29.81 in 10.0 mi West 19.6 mph - N/A   Clear
6:14 PM 66.2 °F - 32.0 °F 28% 29.81 in 10.0 mi West 18.4 mph - N/A   Clear
6:34 PM 64.4 °F - 33.8 °F 32% 29.82 in 10.0 mi WNW 16.1 mph - N/A   Clear
6:55 PM 62.6 °F - 33.8 °F 34% 29.82 in 10.0 mi West 12.7 mph - N/A   Clear
7:14 PM 59.0 °F - 35.6 °F 42% 29.83 in 10.0 mi West 8.1 mph - N/A   Clear
7:34 PM 55.4 °F - 35.6 °F 47% 29.84 in 10.0 mi West 4.6 mph - N/A   Clear
7:54 PM 55.4 °F - 35.6 °F 47% 29.85 in 10.0 mi West 4.6 mph - N/A   Clear
8:14 PM 53.6 °F - 35.6 °F 51% 29.86 in 10.0 mi West 5.8 mph - N/A   Clear
8:34 PM 53.6 °F - 35.6 °F 51% 29.86 in 10.0 mi West 5.8 mph - N/A   Clear
8:54 PM 50.0 °F - 37.4 °F 62% 29.87 in 10.0 mi WSW 6.9 mph - N/A   Clear
9:15 PM 48.2 °F - 37.4 °F 66% 29.87 in 10.0 mi SW 8.1 mph - N/A   Clear
9:34 PM 48.2 °F - 37.4 °F 66% 29.88 in 10.0 mi SW 8.1 mph - N/A   Clear
9:54 PM 48.2 °F - 37.4 °F 66% 29.88 in 10.0 mi SW 8.1 mph - N/A   Clear
10:14 PM 48.2 °F - 37.4 °F 66% 29.88 in 10.0 mi SW 6.9 mph - N/A   Clear
10:34 PM 48.2 °F - 37.4 °F 66% 29.89 in 10.0 mi SW 6.9 mph - N/A   Clear
10:55 PM 46.4 °F 42.4 °F 37.4 °F 71% 29.89 in 10.0 mi SW 8.1 mph - N/A   Clear
11:14 PM 46.4 °F 41.9 °F 37.4 °F 71% 29.90 in 10.0 mi SW 9.2 mph - N/A   Clear
11:34 PM 46.4 °F 41.9 °F 37.4 °F 71% 29.91 in 10.0 mi SW 9.2 mph - N/A   Clear
11:54 PM 46.4 °F 41.9 °F 37.4 °F 71% 29.91 in 10.0 mi SW 9.2 mph - N/A   Clear